Location: 10033 Water Well
(34.0865°N, 106.8959°W)
Time: 17:02:08
(UTC+00:00)

Cosmos 2341 Rocket - Pass Details

Date: 13 January 2026
Orbit: 967 x 1004 km, 82.9° (Epoch: 10 February)

Event Time Altitude Azimuth Distance (km) Brightness Sun altitude
Rises 00:57:43 0° 357° (N) 3,713 6.9 -8.3°
Reaches altitude 10° 01:00:18 10° 1° (N) 2,756 6.2 -8.8°
Maximum altitude 01:06:33 63° 82° (E) 1,087 4.0 -10.0°
Drops below altitude 10° 01:12:43 10° 163° (SSE) 2,715 6.4 -11.2°
Sets 01:15:14 0° 167° (SSE) 3,654 7.1 -11.7°
